Regional Weather Roundup
Issued by NWS Green Bay, WI

Home | Current Version | Previous Version | Graphics & Text | Print | Product List | Glossary Off
Versions: 1 2 3 4 5 6 7 8 9 10 11 12 13 14 15 16 17 18 19 20 21 22 23 24 25 26 27 28 29 30 31 32 33 34 35 36 37 38 39 40 41 42 43 44 45 46 47 48 49 50

000
ASUS43 KGRB 221500
RWRGRB

NORTH-CENTRAL AND NORTHEAST WISCONSIN REGIONAL WEATHER ROUNDUP
NATIONAL WEATHER SERVICE GREEN BAY WI
900 AM CST WED NOV 22 2017

WIZ005-009-010>012-018-019-221600-
NORTH CENTRAL WISCONSIN

CITY           SKY/WX    TMP DP  RH WIND       PRES   REMARKS
IRONWOOD       CLOUDY    17  10  74 SW12      30.24S WCI   4
MANITOWISH WTR NOT AVBL
ARBOR VITAE    NOT AVBL
EAGLE RIVER    CLOUDY    19  12  77 SW7       30.21S WCI   9
LAND O LAKES   NOT AVBL
RHINELANDER    CLOUDY    18  12  77 SW7       30.23F WCI   9
PHILLIPS       CLOUDY    15  10  82 SW5       30.24S WCI   8
ANTIGO         NOT AVBL
TOMAHAWK       NOT AVBL
MERRILL        SUNNY     19  10  70 NW3       30.27F
$$

WIZ013-073-221600-
NORTHEAST WISCONSIN

CITY           SKY/WX    TMP DP  RH WIND       PRES   REMARKS
IRON MOUNTAIN  CLOUDY    23  14  68 W5        30.23F
MARINETTE      SUNNY     26  15  63 NW6       30.30S
$$

WIZ017-030-035>037-045-221600-
CENTRAL WISCONSIN

CITY           SKY/WX    TMP DP  RH WIND       PRES   REMARKS
MEDFORD        NOT AVBL
WAUSAU         SUNNY     19  10  68 W5        30.28S
MOSINEE        SUNNY     19  12  73 W6        30.30S
MARSHFIELD     SUNNY     18  11  74 W7        30.28F WCI   9
WISC RAPIDS    SUNNY     20  13  74 NW6       30.34R
STEVENS POINT  NOT AVBL
WAUPACA        NOT AVBL
SHAWANO        CLOUDY    25  14  64 W6        30.31R
CLINTONVILLE   NOT AVBL
WAUTOMA        SUNNY     20  13  74 W3        30.34S
$$

WIZ038-039-048-051-221600-
FOX VALLEY

CITY           SKY/WX    TMP DP  RH WIND       PRES   REMARKS
NWS GREEN BAY  CLOUDY    26  16  65 W8        30.31S
APPLETON       MOSUNNY   21  12  68 W7        30.30R
OSHKOSH        SUNNY     22  15  75 W7        30.32R
FOND DU LAC    FLURRIES  23  14  68 W5        30.33R
$$

WIZ022-050-052-221600-
EAST CENTRAL WISCONSIN

CITY           SKY/WX    TMP DP  RH WIND       PRES   REMARKS
EPHRAIM        NOT AVBL
WASHINGTON ISL NOT AVBL
STURGEON BAY   CLOUDY    26  15  63 W6        30.30
MANITOWOC      CLOUDY    26  16  65 W5        30.33R
SHEBOYGAN      SUNNY     26  16  65 NW5       30.32R
$$

LMZ563-521-522-541>543-221600-
LAKESHORE

STATION/POSITION TIME  TEMP    WIND        PRES    VSBY  WAVE
                       AIR SEA DIR/SP/G                  HT/PER
                 (UTC) (F)     (DEG/KT/KT) (MB)    (MI)  (FT/S)
SHEBOYGAN LKSHOR 1400   22     300/  7/  8 1027.5R
KEWAUNEE LKSHORE 1430   26     350/  3/  7 1025.5R
NORTHPORT PIER   1440   29     320/  8/ 11 1025.1S
N MID LAKE BUOY  1350   30 47  320/ 10/ 14 1025.8R         3/ 4
SISTER BAY LKSHO 1420          340/ 11/ 14   N/A
MENOMINEE LKSHOR 1430   26     260/  6/  8 1025.5R
$$




USA.gov is the U.S. government's official web portal to all federal, state and local government web resources and services.